Regional Weather Roundup
Issued by NWS

Home | Current Version | Previous Version | Graphics & Text | Print | Product List | Glossary On
Versions: 1 2 3 4 5 6 7 8 9 10 11 12 13 14 15 16 17 18 19 20 21 22 23 24 25 26 27 28 29 30 31 32 33 34 35 36 37 38 39 40 41 42 43 44 45 46 47 48 49 50
000
ASUS43 KMPX 280410
RWRMN
WEATHER ROUNDUP FOR MINNESOTA
NATIONAL WEATHER SERVICE TWIN CITIES/CHANHASSEN MN
1000 PM CST FRI FEB 27 2015


NOTE: "FAIR" INDICATES FEW OR NO CLOUDS BELOW 12,000 FEET WITH NO
SIGNIFICANT WEATHER AND/OR OBSTRUCTIONS TO VISIBILITY. N/A MEANS
CURRENT SKY AND/OR WEATHER CONDITIONS ARE NOT AVAILABLE.

MNZ060>063-068>070-280500-
   Twin Cities Metro

CITY           SKY/WX    TMP DP  RH WIND       PRES   REMARKS
TWIN CITIES    CLEAR      7  -3  64 S6        30.54R WCI  -3
ST PAUL        FAIR       5  -3  69 S5        30.56R WCI  -4
CRYSTAL        CLEAR      7  -2  66 S7        30.51S WCI  -5
BLAINE         CLEAR      7   0  72 S6        30.51R WCI  -3
LAKEVILLE      CLEAR      0  -4  85 SW1       30.53S
EDEN PRAIRIE   CLEAR      3  -4  72 SW6       30.52R WCI  -8
SOUTH ST PAUL  CLEAR      6  -2  67 S6        30.54S WCI  -4
LAKE ELMO      FAIR       3  -4  72 S5        30.53S WCI  -6
$$
MNZ001>005-007-008-013>017-022>024-027-028-280500-
   Northwest Minnesota

CITY           SKY/WX    TMP DP  RH WIND       PRES   REMARKS
BEMIDJI        CLEAR      5  -6  60 S6        30.34S WCI  -6
HALLOCK        CLEAR      1  -4  78 S10       30.31S WCI -14
ROSEAU         MOCLDY     9   0  66 SW9       30.31R WCI  -5
WARROAD        PTCLDY     7   0  72 SW10      30.30S WCI  -8
THIEF RVR FALL PTCLDY     1  -2  85 S9        30.33S WCI -14
CROOKSTON      PTCLDY     7   0  72 S12       30.36F WCI  -9
FOSSTON        PTCLDY     0  -6  78 S13       30.35S WCI -18
DETROIT LAKES  FAIR       5   0  78 S7        30.37S WCI  -7
MOORHEAD       CLEAR      7   0  72 S9        30.39F WCI  -7
PARK RAPIDS    CLEAR      1  -7  68 S7        30.36S WCI -12
MAHNOMEN       FAIR       5  -2  72 S8        30.36S WCI  -8
$$
MNZ006-009>011-018-025>026-280500-
   North Central Minnesota

CITY           SKY/WX    TMP DP  RH WIND       PRES   REMARKS
BAUDETTE       PTCLDY     2  -7  66 SW6       30.31R WCI  -9
FLAG ISLAND    MOCLDY     0  -6  78 S8        30.29S WCI -15
INTL FALLS     CLEAR      0 -11  59 SW6       30.33R WCI -12
WASKISH        PTCLDY     7  -2  66 S3        30.33S
BIG FORK       CLEAR     -6 -15  65 CALM      30.35S
LONGVILLE      CLEAR      3  -6  66 SW6       30.39R WCI  -8
GRAND RAPIDS   CLEAR      9  -8  47 S3        30.35S
CRANE LAKE     CLEAR     -8 -17  65 CALM      30.37R
ORR            FAIR       3 -15  43 CALM      30.32R
COOK           CLEAR      3 -13  47 SW5       30.35R WCI  -6
WALKER         FAIR       5  -5  61 SW7       30.37S WCI  -7
$$
MNZ012-019>021-037-280500-
   Northeast Minnesota

CITY           SKY/WX    TMP DP  RH WIND       PRES   REMARKS
DULUTH         CLEAR      9  -6  50 SW13      30.38R WCI  -7
ELY            CLEAR      7 -11  43 S5        30.34R WCI  -2
HIBBING        CLEAR      1 -13  51 SW3       30.36R
EVELETH        FAIR       7  -8  51 W5        30.37R WCI  -2
DULUTH HARBOR  CLEAR     10  -2  56 SW12      30.46S WCI  -4
TWO HARBORS    CLEAR      9  -6  52 W6        30.38S WCI  -1
SILVER BAY     CLEAR      7  -8  51 CALM      30.37R
GRAND MARAIS     N/A     13  -8  39 W7        30.40R WCI   3
G MARAIS ARPRT PTCLDY     5 -13  43 SW3       30.30R
$$
MNZ029>031-032-039>041-046>048-054>057-064-280500-
   West Central Minnesota

CITY           SKY/WX    TMP DP  RH WIND       PRES   REMARKS
FERGUS FALLS   CLEAR      5  -4  66 S9        30.45S WCI  -9
WHEATON        CLEAR      5  -4  66 SE12      30.43S WCI -11
MORRIS         FAIR       0  -6  78 S7        30.42S WCI -13
ALEXANDRIA     CLEAR      5  -2  72 S9        30.41S WCI  -9
ELBOW LAKE     FAIR       1  -5  75 S9        30.40F WCI -14
WADENA         CLEAR     -2  -8  78 S3        30.40R
APPLETON       FAIR       7   0  72 S8        30.45S WCI  -6
BENSON         CLEAR      1  -4  78 S8        30.45S WCI -12
ORTONVILLE     FAIR       3  -4  72 S7        30.42S WCI  -9
MADISON        FAIR       1  -4  78 S8        30.45F WCI -12
WILLMAR        FAIR       1  -4  78 CALM      30.47S
$$
MNZ033>034-036-042>043-049>051-058-059-280500-
   Central Minnesota

CITY           SKY/WX    TMP DP  RH WIND       PRES   REMARKS
ST CLOUD       FAIR       4  -4  69 S6        30.47S WCI  -7
SAUK CENTRE    FAIR       2  -3  77 S8        30.44S WCI -12
PAYNESVILLE    CLEAR      3  -2  80 SE6       30.46S WCI  -8
AITKIN         CLEAR      7  -8  51 SW3       30.40S
PINE RIVER     CLEAR     -6  -9  84 CALM      30.42S
BRAINERD       CLEAR      4  -7  60 SW7       30.42R WCI  -8
STAPLES        CLEAR     -2  -9  71 S5        30.41R WCI -12
LONG PRAIRIE   FAIR       5  -2  72 S7        30.43S WCI  -7
LITTLE FALLS   CLEAR      3  -4  72 S3        30.46R
LITCHFIELD     CLEAR      1  -2  85 CALM      30.48S
BUFFALO        CLEAR      7   0  72 S5        30.51S WCI  -2
MAPLE LAKE     CLEAR      6   1  80 S3        30.50R
$$
MNZ037-044-045-052-053-280500-
   East Central Minnesota

CITY           SKY/WX    TMP DP  RH WIND       PRES   REMARKS
PRINCETON      FAIR       5  -2  72 CALM      30.48S
MORA           CLEAR      7  -4  61 SW5       30.49R WCI  -2
RUSH CITY      PTCLDY     7  -1  69 S5        30.49S WCI  -2
MOOSE LAKE     CLEAR      3  -8  60 CALM      30.43R
HINCKLEY       FAIR       5  -2  72 SW6       30.47R WCI  -6
CLOQUET        CLEAR      7  -9  47 SW6       30.40S WCI  -3
MCGREGOR       CLEAR      7  -4  61 CALM      30.42R
$$
MNZ071>073-080-081-089-090-097-098-280500-
   Southwest Minnesota

CITY           SKY/WX    TMP DP  RH WIND       PRES   REMARKS
MONTEVIDEO     CLEAR      5  -2  72 SW8       30.47F WCI  -8
GRANITE FALLS  CLEAR     -2  -6  80 S9        30.49S WCI -18
CANBY          CLEAR      7  -1  70 S7        30.44F WCI  -5
MARSHALL       CLEAR      3  -6  66 S8        30.46S WCI -10
REDWOOD FALLS  CLEAR      3  -4  72 S10       30.50R WCI -12
OLIVIA         CLEAR      3   0  85 S8        30.48S WCI -10
PIPESTONE      CLEAR      3  -2  78 S10       30.41S WCI -12
WINDOM         CLEAR      1  -2  85 S5        30.47S WCI  -8
WORTHINGTON    CLEAR     19  -9  27 S14       30.48R WCI   6
JACKSON        CLEAR      1  -6  71 S8        30.49R WCI -12
TRACY          CLEAR      5  -1  75 S14       30.46S WCI -12
SLAYTON        CLEAR      2  -4  75 CALM      30.44S
$$
MNZ065>067-074>077-082>085-091>093-280500-
   South Central Minnesota

CITY           SKY/WX    TMP DP  RH WIND       PRES   REMARKS
MANKATO        CLEAR      3  -8  60 S8        30.53R WCI -10
NEW ULM        CLEAR      1  -6  71 S8        30.52R WCI -12
ST JAMES       CLEAR      1  -4  78 S10       30.53R WCI -14
FAIRMONT       PTCLDY     1  -4  78 S9        30.50S WCI -14
GLENCOE        CLEAR      5   0  78 S7        30.50S WCI  -7
FARIBAULT      CLEAR      0  -6  78 S6        30.54R WCI -12
OWATONNA       CLEAR      1  -4  78 S8        30.53R WCI -12
WASECA         CLEAR     -4  -8  84 S6        30.55R WCI -16
ALBERT LEA     PTCLDY     0  -4  85 S3        30.54R
$$
MNZ078>079-086>088-094>096-280500-
   Southeast Minnesota

CITY           SKY/WX    TMP DP  RH WIND       PRES   REMARKS
ROCHESTER      PTCLDY    -7 -11  83 S10       30.53R WCI -25
RED WING       CLEAR      0  -8  71 CALM      30.56S
STANTON        CLEAR      1  -4  78 S6        30.53S WCI -10
DODGE CENTER   PTCLDY     0  -4  85 S12       30.51S WCI -18
WINONA         CLEAR      3  -4  72 CALM      30.62R
AUSTIN         PTCLDY    -6  -9  84 S6        30.54R WCI -18
PRESTON        PTCLDY    -4  -9  82 SW7       30.55R WCI -18
$$
ABBREVIATIONS USED IN REMARKS
   TC - TEMPERATURES IN CELSIUS
  WCI - WIND CHILL INDEX
   HX - HEAT INDEX
  VSB - VISIBILITY
$$



USA.gov is the U.S. government's official web portal to all federal, state and local government web resources and services.